Track IRIDIUM 106 now! 10-day predictions IRIDIUM 106 is classified as:
1 41917U 17003A 25186.55525731 .00000038 00000-0 64730-5 0 9994 2 41917 86.3961 233.3271 0001963 83.3076 276.8343 14.34217693443525